Weather History for Kirksville, MO

Change the Weather History Date:

Thursday, August 15, 2013

  Actual Average Record
Temperature  
Mean Temperature 64 °F 74 °F  
Max Temperature 74 °F 85 °F 105 °F (1936)
Min Temperature 54 °F 64 °F 47 °F (1964)
Degree Days  
Heating Degree Days 1 0  
Month to date heating degree days 5 0  
Since 1 June heating degree days 49 17  
Since 1 July heating degree days 13 1  
Cooling Degree Days 0 9  
Month to date cooling degree days 97 150  
Year to date cooling degree days 629 717  
Since 1 June cooling degree days 561 655  
Growing Degree Days 13 (Base 50)    
Moisture  
Dew Point 52 °F    
Average Humidity 69    
Maximum Humidity 93    
Minimum Humidity 44    
Precipitation  
Precipitation T in 0.11 in 3.05 in (1932)
Month to date precipitation T 1.68  
Year to date precipitation 29.89 25.27  
Sea Level Pressure  
Sea Level Pressure 30.15 in    
Wind  
Wind Speed 3 mph (ESE)    
Max Wind Speed 9 mph    
Max Gust Speed 12 mph    
Visibility 10 miles    
Events Rain    
T = Trace of Precipitation, MM = Missing Value Source: NWS Daily Summary

Daily Weather History Graph

Daily Weather History Graph

Search for Another Location

Airport:

Trip Planner

Search our weather history database for the weather conditions in past years. The results will help you decide how hot, cold, wet, or windy it might be!

Date:

Astronomy

Aug. 15, 2013 Rise Set
Actual Time 6:21 AM CDT 8:06 PM CDT
Civil Twilight 5:52 AM CDT 8:35 PM CDT
Nautical Twilight 5:17 AM CDT 9:10 PM CDT
Astronomical Twilight 4:39 AM CDT 9:48 PM CDT
Moon 3:24 PM CDT (8/15) 12:31 AM CDT (8/15)
Length of Visible Light 14h 42m
Length of Day
13h 44m
Waxing Gibbous, 64% of the Moon is Illuminated
Aug 15
Waxing Gibbous
Aug 20
Full
Aug 28
Last Quarter
Sep 5
New
Sep 12
First Quarter

Hourly Weather History & Observations

Time (CDT) Temp. Dew Point Humidity Pressure Visibility Wind Dir Wind Speed Gust Speed Precip Events Conditions
12:55 AM 55.9 °F 52.0 °F 87% 30.17 in 10.0 mi Calm Calm - N/A   Clear
1:55 AM 54.0 °F 51.1 °F 90% 30.16 in 10.0 mi Calm Calm - N/A   Clear
2:55 AM 55.0 °F 52.0 °F 89% 30.16 in 10.0 mi Calm Calm - N/A   Clear
3:55 AM 55.9 °F 52.0 °F 87% 30.16 in 10.0 mi Calm Calm - N/A   Clear
4:55 AM 55.9 °F 54.0 °F 93% 30.16 in 10.0 mi Calm Calm - N/A   Clear
5:55 AM 55.9 °F 53.1 °F 90% 30.16 in 10.0 mi Calm Calm - N/A   Overcast
6:55 AM 57.0 °F 53.1 °F 87% 30.17 in 10.0 mi Calm Calm - N/A   Scattered Clouds
7:55 AM 61.0 °F 54.0 °F 78% 30.19 in 10.0 mi Calm Calm - N/A   Clear
8:55 AM 66.9 °F 54.0 °F 63% 30.19 in 10.0 mi South 4.6 mph - N/A   Clear
9:55 AM 71.1 °F 52.0 °F 51% 30.18 in 10.0 mi Variable 4.6 mph - N/A   Clear
10:55 AM 71.1 °F 50.0 °F 47% 30.18 in 10.0 mi SSW 5.8 mph - N/A   Clear
11:55 AM 71.1 °F 48.0 °F 44% 30.18 in 10.0 mi SSE 4.6 mph - N/A   Scattered Clouds
12:55 PM 71.1 °F 50.0 °F 47% 30.16 in 10.0 mi ESE 6.9 mph - N/A   Scattered Clouds
1:55 PM 72.0 °F 50.0 °F 46% 30.15 in 10.0 mi SSE 3.5 mph - 0.00 in Rain Light Rain
2:55 PM 72.0 °F 50.0 °F 46% 30.14 in 10.0 mi Calm Calm - 0.00 in   Overcast
3:55 PM 71.1 °F 51.1 °F 49% 30.12 in 10.0 mi East 5.8 mph - N/A   Overcast
4:55 PM 71.1 °F 51.1 °F 49% 30.11 in 10.0 mi ESE 8.1 mph - N/A   Overcast
5:55 PM 70.0 °F 53.1 °F 55% 30.11 in 10.0 mi East 4.6 mph - N/A   Overcast
6:55 PM 70.0 °F 54.0 °F 57% 30.11 in 10.0 mi ENE 3.5 mph - N/A   Overcast
7:55 PM 68.0 °F 54.0 °F 61% 30.12 in 10.0 mi East 3.5 mph - N/A   Overcast
8:55 PM 66.9 °F 54.0 °F 63% 30.14 in 10.0 mi Calm Calm - N/A   Overcast
9:55 PM 66.0 °F 53.1 °F 63% 30.14 in 10.0 mi East 3.5 mph - N/A   Overcast
10:55 PM 64.9 °F 54.0 °F 68% 30.15 in 10.0 mi ENE 3.5 mph - N/A   Overcast